User: anonymous   Login
Location: Gouy
(50.0008°N, 3.2556°E)
Time: 21:38:40
(UTC+00:00)
Language:

Cosmos 1190 Rocket - Orbit

View from above orbital plane
View from above orbital plane
View from above satellite
View from above satellite

Ground track
Ground track

The orbit data is extracted from the following two-line orbital elements,

1 11870U 80056B   24205.46975822  .00000744  00000-0  25553-3 0  9990
2 11870  74.0534 123.6130 0015854 155.4524 204.7388 14.37721862283474
Epoch (UTC): 23 July 2024 11:16:27
Eccentricity: 0.0015854
inclination: 74.0534°
perigee height: 755 km
apogee height: 777 km
right ascension of ascending node: 123.6130°
argument of perigee: 155.4524°
revolutions per day: 14.37721862
mean anomaly at epoch: 204.7388°
orbit number at epoch: 28347

The dashed part of the orbit path shows where the satellite is in the earth's shadow,  

DLR